Wind_Speed
23 24 24 22 20 20 21 21 20 19 19 19 18 17 17 17 17 17 17 17 18 18 19 18 17 16 16 17 18 19 19 19 20 20 21 21 22 23 24 24 25 24 24 24 22 21 20 20 20 19 19 20 21 22 23 23 22 21 22 21 20 20 20 21 22 21 19 19 21 21 21 22 23 25 26 26 27 28 28 29 29 29 31 32 32
23 25 26 22 19 18 18 19 20 20 20 19 18 17 17 17 17 17 18 18 18 18 19 18 16 16 17 18 19 19 20 20 20 21 21 22 23 24 24 25 25 24 24 24 22 21 21 20 19 18 19 19 21 22 23 23 22 21 21 21 20 20 20 20 21 22 20 18 18 19 19 20 22 23 25 25 25 26 26 27 29 28 29 32 34
19 23 26 24 21 18 17 18 19 20 20 19 18 18 18 18 18 18 18 18 18 18 19 17 16 16 17 19 20 20 20 21 21 21 21 22 23 24 25 26 25 24 23 22 20 20 19 18 18 18 19 20 21 21 22 22 21 20 20 21 21 20 20 20 20 21 22 19 16 16 16 18 20 22 24 24 24 23 23 24 27 27 28 31 34
16 21 26 26 24 20 17 17 19 20 19 19 18 19 19 19 19 19 19 18 18 18 18 17 16 17 18 19 20 21 21 21 21 21 22 22 23 24 25 26 25 24 23 21 19 18 19 18 19 20 20 20 21 21 21 21 20 18 18 19 20 20 19 19 20 21 21 18 16 15 15 17 20 21 21 20 20 21 21 22 25 26 28 30 32
16 20 25 27 26 23 20 19 20 20 20 19 19 19 19 19 19 19 18 18 18 18 17 17 17 18 19 20 20 21 21 21 21 21 22 22 23 24 25 25 24 23 22 21 20 20 20 20 20 20 20 19 19 19 19 19 19 18 18 18 19 18 18 18 19 20 19 18 17 16 16 17 18 17 15 14 16 19 19 20 24 26 27 30 31
18 19 23 26 26 24 23 23 23 22 21 20 19 19 19 19 19 18 17 17 17 17 17 16 17 18 19 20 20 21 21 21 21 21 21 22 23 24 24 25 24 23 22 22 22 21 21 20 19 18 17 16 16 17 17 18 18 18 18 18 18 18 18 18 18 18 18 18 17 17 17 18 17 14 12 12 13 15 15 15 18 22 25 28 30
19 19 21 24 25 24 24 24 24 23 22 21 21 20 20 19 18 17 16 16 17 16 16 16 16 18 18 19 20 21 21 21 21 21 21 22 23 23 24 24 24 23 22 22 22 20 19 18 17 15 15 15 15 15 16 17 18 18 18 18 18 18 18 17 17 17 17 17 16 15 16 17 17 14 13 13 13 14 15 15 16 19 21 25 28
19 18 19 21 23 24 24 24 23 22 21 21 21 21 20 18 17 16 15 15 15 15 15 15 16 17 18 19 20 21 21 21 21 21 21 22 22 23 23 23 23 22 22 21 20 19 17 16 16 15 14 14 14 14 14 15 16 17 18 17 17 18 18 18 17 17 16 16 16 15 15 16 15 13 11 12 13 14 15 15 17 17 17 22 27
16 16 18 21 22 21 21 20 19 19 20 21 21 20 18 17 16 15 15 14 14 14 14 15 15 16 18 19 20 21 21 21 21 21 21 22 22 23 23 22 22 21 20 20 18 17 16 15 15 15 14 14 13 13 13 13 14 14 16 16 16 16 17 17 16 16 16 16 16 15 15 15 15 13 11 10 11 13 14 15 14 12 12 19 24
16 18 21 21 20 19 18 17 18 19 20 19 18 17 16 16 15 14 13 13 13 13 13 14 15 16 18 20 21 21 21 21 21 21 21 21 21 22 21 20 20 19 18 18 17 16 16 15 14 14 13 13 13 13 13 13 13 13 14 15 15 15 16 16 15 15 15 15 16 15 14 14 14 13 11 10 10 10 13 16 15 13 10 12 18
20 22 23 22 20 19 17 16 17 16 15 15 15 15 15 15 14 13 13 12 12 13 13 14 15 17 19 20 21 21 20 20 20 20 20 20 20 20 19 18 17 17 16 15 14 14 14 14 13 13 12 12 12 12 12 13 13 13 13 14 15 15 15 15 15 15 15 15 15 14 13 13 13 13 12 10 10 9 10 13 16 17 17 15 13
24 25 25 22 20 17 16 16 15 13 12 13 14 15 15 15 14 12 12 12 12 12 13 14 15 17 19 20 20 20 20 20 20 19 19 19 19 18 17 16 15 14 13 12 12 12 12 13 12 12 12 12 12 13 13 13 13 13 13 14 15 15 15 15 15 15 15 15 15 14 13 13 13 13 12 12 11 9 8 9 12 14 16 18 16
26 25 23 21 19 17 17 18 18 15 14 14 15 15 14 14 13 12 12 12 12 12 13 14 16 18 19 20 20 20 20 20 19 18 18 19 18 17 15 14 13 13 12 12 11 11 12 12 12 12 12 12 12 13 14 14 14 14 14 15 15 15 15 16 17 16 16 15 15 14 13 12 13 13 12 11 11 11 10 9 9 10 10 12 15
23 19 18 19 19 20 21 23 23 19 15 15 15 15 14 14 13 13 13 12 12 12 13 14 16 18 19 19 20 20 19 19 18 17 17 17 16 15 14 13 13 13 12 12 12 12 12 12 12 12 12 12 12 13 14 14 14 14 14 15 15 14 15 16 16 15 15 15 14 14 14 13 13 12 11 10 10 11 11 11 11 12 11 10 10
22 17 17 18 19 22 26 28 25 19 16 16 16 15 15 14 13 13 13 12 12 12 13 15 16 18 19 19 19 19 18 17 16 16 16 16 15 14 14 13 13 13 13 13 13 13 13 13 13 12 12 11 11 12 12 12 12 12 13 13 13 13 12 12 13 13 13 13 13 13 14 14 14 14 13 11 9 8 8 9 9 10 13 15 14
24 21 21 23 25 27 29 28 23 19 17 16 16 16 15 14 14 14 13 12 12 12 13 15 16 18 18 18 18 17 16 16 15 15 15 14 14 14 13 13 13 13 13 13 13 13 13 13 12 12 12 11 11 11 11 11 11 11 11 11 12 12 11 11 12 12 12 12 12 12 13 13 14 14 14 11 8 6 6 6 7 8 9 11 14
26 26 27 29 30 31 29 26 21 19 18 17 16 16 16 15 14 14 12 12 12 12 13 15 16 17 17 17 16 15 15 15 15 15 15 14 13 13 13 13 13 13 12 12 12 12 12 12 11 11 12 12 12 11 11 10 10 10 10 10 11 11 11 12 12 11 11 11 11 11 12 12 12 12 12 11 8 5 6 7 7 8 9 7 6
30 32 32 32 31 29 27 24 21 19 18 18 17 17 16 15 14 13 12 11 11 12 13 15 16 16 16 15 14 14 14 14 14 14 14 14 13 13 12 12 12 12 11 11 11 11 10 10 10 10 11 11 10 10 9 9 9 10 10 11 11 12 12 11 11 11 11 11 11 11 11 10 10 10 10 10 9 8 6 6 6 7 8 9 9
33 33 32 30 28 26 24 22 20 19 18 18 18 17 16 15 14 12 11 11 11 12 13 14 15 15 14 13 13 13 13 14 13 13 13 13 12 12 12 11 11 11 10 10 9 8 8 9 9 9 9 8 8 8 9 10 11 12 12 12 13 12 11 11 11 11 11 11 10 10 9 9 9 9 10 9 8 7 7 7 8 9 10 10 11
30 30 29 28 26 25 23 21 20 19 19 18 18 17 16 15 13 12 11 11 12 12 13 13 13 13 12 12 12 12 12 12 12 12 12 12 11 11 11 10 9 8 8 7 7 8 8 8 8 8 8 9 10 11 12 13 13 14 14 13 13 13 12 12 12 12 11 10 10 10 9 9 9 9 9 10 9 8 7 8 9 9 10 11 10
28 29 28 27 26 24 23 21 20 19 19 18 18 17 15 14 13 12 11 11 11 12 12 13 12 11 11 11 11 11 11 10 11 11 10 10 10 10 9 7 6 5 6 8 9 9 8 7 7 9 10 11 12 12 13 13 13 14 14 13 13 13 13 13 13 13 13 13 13 12 11 10 9 8 8 9 9 9 9 9 10 9 8 8 8
29 28 27 26 24 22 21 20 20 19 18 18 17 16 15 13 12 11 10 10 11 11 11 11 11 11 10 10 10 10 9 9 9 9 9 9 8 6 5 3 4 7 8 9 8 8 7 7 7 9 10 11 12 12 12 12 12 13 13 13 13 13 14 14 14 14 14 15 14 13 12 11 10 9 9 8 8 8 9 8 9 9 9 8 8
27 27 25 23 21 21 20 20 19 19 18 17 16 15 14 12 11 10 10 10 10 10 10 10 10 9 9 10 9 9 8 8 9 8 7 5 3 3 3 4 7 8 8 7 6 6 6 7 8 8 9 10 11 12 13 13 13 13 14 14 14 14 14 15 15 15 15 15 13 12 12 12 12 11 10 10 9 9 9 9 9 9 9 9 8
23 23 22 21 21 21 20 20 19 18 17 16 15 14 13 11 10 10 10 10 10 10 9 9 9 9 9 8 8 8 8 8 8 7 4 1 2 4 5 6 7 7 5 5 5 4 4 6 7 8 9 10 11 12 13 13 14 14 14 14 15 15 15 15 15 15 14 13 12 11 11 11 12 12 12 12 12 12 11 11 11 10 9 9 8
20 20 20 20 21 20 19 19 18 17 16 14 13 12 11 11 11 10 11 10 9 9 9 9 8 8 8 7 7 8 8 7 5 3 2 1 3 5 6 6 6 5 4 4 4 4 4 5 7 8 9 10 11 12 12 13 14 14 14 14 14 14 14 14 13 12 12 11 11 11 11 11 12 13 13 13 13 13 13 12 11 11 11 11 10
19 20 20 20 19 19 18 18 16 15 14 13 12 12 12 12 12 11 11 10 9 9 9 8 8 7 6 7 7 7 5 3 2 2 2 2 3 4 5 5 4 4 4 4 4 5 4 5 6 8 9 11 11 11 12 12 13 13 13 13 13 14 14 13 13 12 11 10 11 11 12 12 13 13 13 13 13 13 13 12 11 11 12 13 11
19 19 19 18 18 18 17 17 16 15 15 14 14 14 13 12 11 10 9 9 9 9 8 8 7 6 6 6 6 5 4 4 5 5 4 4 3 3 3 4 4 4 5 4 5 5 5 5 6 8 9 10 10 11 11 12 12 12 12 12 12 13 13 13 12 12 12 11 11 11 12 12 13 13 12 12 12 13 13 13 12 13 14 13 11
18 18 18 18 18 18 17 17 16 15 15 15 13 11 9 9 9 9 9 9 8 8 7 6 5 5 5 5 4 4 5 5 5 5 4 3 2 2 3 3 4 4 5 4 4 5 5 5 6 7 8 9 9 10 11 11 11 11 11 11 12 12 12 12 12 11 12 12 12 12 11 11 11 12 12 11 12 12 13 13 13 14 14 12 10
19 18 19 19 18 18 17 17 16 15 15 14 12 9 9 10 10 10 10 9 8 8 6 5 4 4 3 3 5 7 7 6 5 4 3 2 1 2 2 3 3 4 5 4 4 5 5 5 6 6 7 8 9 10 9 9 10 10 10 11 11 11 11 11 10 10 11 11 11 11 11 11 11 11 11 11 11 12 12 12 13 13 12 11 10
19 19 19 18 18 18 18 17 16 15 15 14 13 12 11 11 11 11 10 9 8 7 7 6 6 6 7 7 8 8 8 6 5 4 3 1 1 1 2 3 4 5 5 5 5 5 5 5 5 6 7 7 8 8 9 9 9 9 9 10 10 10 10 10 10 10 10 10 10 11 11 10 10 10 10 10 10 11 11 11 11 11 11 10 10
19 19 18 18 18 18 17 15 15 16 15 13 12 12 11 11 11 11 10 9 8 7 6 6 6 7 9 10 10 9 7 6 5 3 2 1 0 1 2 3 4 5 6 6 5 5 5 4 5 5 6 7 7 7 8 8 8 8 9 9 9 9 9 9 9 10 10 10 10 10 10 10 9 10 10 10 10 10 10 9 10 9 9 9 9
18 18 18 19 18 16 14 15 16 15 13 13 13 12 12 11 10 9 9 8 7 7 6 6 7 9 10 10 10 8 7 5 4 3 2 1 1 2 3 4 5 6 6 6 5 5 4 4 4 5 5 6 6 7 7 7 7 8 8 8 9 9 9 9 9 9 10 9 10 9 9 9 9 9 9 9 9 9 9 9 8 8 8 8 8
18 18 18 18 16 14 15 16 15 14 13 13 13 12 12 11 10 9 8 7 7 7 8 9 10 11 11 10 9 7 6 5 4 2 2 2 2 2 3 4 5 6 6 6 5 5 4 4 4 5 5 5 6 6 6 6 7 7 7 7 8 8 8 8 8 9 9 8 9 9 9 9 9 9 9 9 9 9 8 8 8 8 8 7 7
19 18 18 16 15 15 16 16 14 13 13 13 12 11 11 10 9 8 8 8 8 9 10 12 13 12 11 10 8 7 6 5 4 2 2 2 2 3 3 4 6 6 6 5 5 5 4 4 4 4 4 5 5 5 6 6 6 6 7 7 7 7 7 8 8 8 8 8 8 8 8 9 9 8 8 8 8 8 8 8 8 7 7 7 7
19 19 18 17 17 18 17 16 14 14 13 12 11 10 9 8 8 8 8 9 9 11 13 14 14 13 11 10 8 7 6 5 4 3 3 3 2 3 4 5 6 6 6 5 5 4 4 4 4 4 4 4 4 5 5 5 6 6 6 6 6 6 7 7 7 8 8 7 7 8 8 8 8 8 8 8 8 8 8 8 7 7 7 7 7
19 19 19 19 18 18 17 15 14 14 12 11 10 9 9 8 8 8 9 10 12 14 15 15 14 12 11 10 8 7 6 5 4 3 3 3 2 3 4 5 6 6 5 5 4 4 3 3 3 3 3 3 4 4 5 5 6 6 6 6 6 6 6 7 7 7 7 7 7 7 7 7 7 7 7 7 7 7 7 7 7 7 7 7 6
19 19 19 18 18 17 16 15 14 12 11 10 9 9 8 8 9 9 10 12 15 16 16 15 13 12 10 9 8 7 7 6 5 4 4 3 3 4 5 5 5 5 5 4 4 3 3 3 3 3 3 3 4 4 5 5 5 5 6 6 6 6 6 6 6 6 6 6 6 6 6 7 7 7 7 7 7 7 7 7 7 6 6 6 6
19 19 19 18 17 17 15 14 12 11 10 10 10 9 9 9 10 11 12 15 17 17 15 14 12 11 10 9 8 8 7 6 5 5 4 3 3 4 5 5 5 5 4 4 4 3 3 3 2 2 3 3 4 4 5 5 5 6 6 6 6 6 6 6 5 5 5 5 5 5 6 6 6 6 6 6 6 6 6 6 6 6 6 6 6
21 20 19 18 16 15 14 13 12 11 11 10 9 9 9 10 11 12 15 17 17 16 14 13 12 11 10 9 8 8 7 7 6 5 4 4 4 4 5 5 5 5 4 4 3 3 2 2 2 2 2 3 4 4 5 5 5 6 6 6 6 6 6 5 5 5 5 5 5 5 5 5 6 6 6 6 6 6 6 6 6 6 6 6 6
20 19 17 16 15 14 14 13 12 11 10 9 9 9 10 11 12 15 18 18 17 15 14 13 11 11 10 9 9 9 8 7 6 5 5 4 4 5 5 5 5 5 4 4 3 3 2 2 2 2 3 3 4 4 5 5 5 6 6 6 6 6 6 6 5 5 5 5 5 5 5 5 6 6 6 6 6 6 6 6 6 6 6 6 5
19 17 16 15 15 15 14 13 12 10 9 9 9 10 12 13 16 18 19 18 16 15 13 12 11 10 10 10 10 10 9 7 6 5 5 5 5 5 5 5 5 4 4 4 3 3 2 2 2 3 3 4 4 4 5 5 6 6 6 6 6 6 6 6 6 6 5 5 5 5 6 6 6 6 6 6 6 6 6 6 6 6 6 6 6
17 16 16 16 15 15 13 12 10 9 9 10 11 12 14 17 18 19 18 17 15 14 12 11 11 11 11 11 10 10 9 7 6 6 6 6 6 6 6 6 5 5 5 4 4 4 3 3 3 3 4 4 4 5 5 6 6 6 6 7 7 7 7 7 6 6 6 6 6 6 6 6 6 6 7 7 7 7 6 6 6 6 6 6 6
16 16 16 16 15 13 11 10 9 9 11 11 11 13 16 18 19 18 17 16 15 13 12 11 11 11 11 11 10 10 9 7 6 6 6 6 6 7 7 6 6 6 5 5 5 4 4 4 4 4 4 4 5 5 5 6 6 6 7 7 7 7 7 7 7 7 7 7 7 7 7 7 7 7 7 7 7 7 7 7 7 6 6 6 6
16 16 16 15 13 11 9 9 10 11 11 11 11 15 18 19 18 18 17 15 14 13 12 12 12 11 11 11 10 9 8 7 7 7 7 7 7 8 7 7 7 7 6 6 6 5 5 5 5 5 5 5 6 6 6 6 6 6 7 7 7 7 7 7 7 7 7 7 8 8 8 8 8 8 8 8 8 8 8 8 8 8 7 7 7
15 15 14 12 11 10 10 10 11 10 9 10 13 17 18 18 18 17 16 14 14 13 12 12 12 12 12 11 10 9 8 8 7 7 8 8 8 8 8 8 8 8 7 7 7 7 6 6 6 6 6 6 6 7 7 7 7 7 8 8 8 8 8 9 9 9 9 9 9 9 9 10 10 10 10 10 11 11 10 10 10 10 10 9 9
14 13 12 11 10 10 11 10 9 9 10 13 16 18 18 18 17 16 14 14 14 13 12 12 12 12 12 11 10 9 9 8 8 9 9 9 9 9 9 9 9 9 8 8 8 8 8 8 8 8 8 8 8 8 8 9 9 9 9 9 9 10 10 10 11 11 11 12 12 12 12 12 12 12 13 13 13 13 13 13 13 13 13 12 12
13 12 11 11 10 10 10 9 9 11 14 16 17 17 17 17 16 15 14 14 13 12 12 12 12 12 12 11 10 10 9 9 9 9 10 9 9 10 10 9 9 10 10 10 10 10 10 9 9 10 10 10 10 10 11 11 11 11 11 11 12 12 12 13 13 14 14 15 15 15 15 15 15 15 15 16 16 16 16 16 16 16 16 15 15
13 12 11 11 10 10 10 10 11 14 15 16 16 17 17 16 15 14 14 14 13 12 12 13 13 12 12 11 11 10 10 10 10 10 10 10 11 11 11 11 11 11 11 11 11 11 12 12 12 12 12 12 13 13 13 14 14 14 14 14 14 15 15 16 16 16 17 18 18 19 19 19 19 19 19 19 19 19 19 19 19 19 19 18 18
13 12 11 11 10 10 10 11 13 15 15 15 16 16 15 15 14 14 13 13 13 13 13 13 13 13 12 12 11 11 11 11 11 11 11 12 12 12 12 12 12 13 13 13 13 13 13 14 14 15 15 15 15 16 16 17 17 17 17 18 18 18 18 19 20 20 20 21 21 21 22 22 23 23 23 23 22 22 22 22 22 22 21 21 21
13 12 11 11 10 10 10 12 14 15 15 15 15 15 15 14 14 13 13 13 13 13 13 13 13 13 12 12 12 12 12 12 12 12 13 13 14 14 14 14 14 14 15 16 16 17 17 17 17 17 18 18 19 19 19 19 20 20 21 21 21 21 21 22 23 23 23 24 24 24 25 25 25 25 26 26 26 25 25 25 25 25 24 24 24
14 13 11 11 10 10 11 13 14 15 15 15 15 14 14 14 14 13 13 13 13 14 14 14 14 13 13 13 13 13 13 13 14 14 14 15 15 16 17 17 17 16 16 16 17 19 20 20 20 20 20 21 22 22 23 23 23 23 23 24 24 24 24 25 26 26 27 27 27 27 27 27 28 28 28 28 28 28 28 28 27 27 27 27 27
Wind_Direction
214 207 203 203 209 219 227 233 239 244 249 252 256 261 267 273 281 288 292 293 294 301 307 307 308 312 314 316 319 323 325 324 322 321 321 323 323 322 320 317 315 313 312 311 311 309 308 308 309 309 310 312 313 312 312 312 313 313 313 316 317 314 312 309 306 304 299 290 287 284 280 280 285 287 284 278 270 263 256 248 244 242 236 228 224
217 209 202 204 213 222 231 239 245 247 249 253 257 263 270 276 283 289 290 291 292 298 303 304 306 309 311 315 320 323 324 323 321 320 321 322 322 322 319 317 315 313 311 310 309 309 308 309 310 311 313 314 314 315 313 312 313 313 311 312 314 312 311 312 310 309 305 294 285 284 285 288 292 292 288 281 271 261 254 246 239 236 232 227 225
221 210 203 206 214 222 233 242 246 248 250 254 259 266 273 278 284 289 289 289 290 295 300 301 303 307 311 316 320 321 322 321 320 319 320 321 322 322 320 317 315 312 309 309 310 310 310 311 312 313 315 315 315 315 315 315 315 315 313 311 311 311 310 312 313 312 314 307 291 286 292 298 301 297 290 283 271 260 253 244 237 234 231 228 227
223 213 208 212 217 222 234 243 246 250 252 256 262 269 276 280 285 288 288 286 289 293 297 299 302 307 312 316 319 320 320 320 320 318 319 321 322 322 319 317 315 313 311 310 311 309 309 310 311 313 314 314 314 315 316 317 317 316 315 313 313 312 311 313 314 314 318 320 311 303 301 302 306 302 295 287 270 258 254 246 239 237 234 231 228
224 217 214 217 220 225 236 245 249 254 257 261 268 273 279 284 286 287 285 284 286 290 293 297 303 309 313 316 318 320 320 319 319 317 318 321 322 321 319 318 317 314 312 311 310 309 309 310 310 312 313 314 316 318 319 319 317 316 314 314 315 315 313 313 315 315 318 322 322 320 312 308 311 307 298 293 273 261 263 256 246 242 235 231 231
224 220 217 221 225 230 240 249 254 259 263 268 273 278 282 285 285 282 280 280 283 287 291 297 305 310 313 317 319 320 319 318 317 316 317 320 321 320 319 318 317 314 312 311 312 313 314 314 315 316 318 320 322 323 323 321 319 317 315 314 314 314 314 313 313 315 317 319 321 323 318 314 316 306 290 291 281 270 270 260 250 250 242 235 234
223 220 219 224 229 236 245 251 256 261 265 270 276 280 282 282 279 275 273 275 279 284 291 299 306 310 314 318 319 319 318 317 317 316 317 319 320 319 319 318 317 316 314 314 315 318 319 320 322 324 325 327 326 324 323 321 320 319 318 318 315 313 312 311 311 312 314 317 317 318 315 313 315 311 293 287 283 276 272 260 250 256 256 246 239
222 220 220 225 232 239 244 249 254 259 265 272 277 278 277 272 268 265 265 270 276 283 292 301 306 311 316 319 319 318 318 317 317 317 317 318 319 319 318 317 318 317 316 316 317 320 323 325 328 330 331 331 329 328 327 326 326 325 325 324 321 316 313 311 310 310 311 315 316 314 311 306 309 316 308 292 282 275 275 268 249 249 271 265 246
221 219 221 224 227 233 238 244 252 261 269 274 274 270 265 260 257 256 260 266 274 283 293 301 307 312 316 318 318 318 318 317 317 316 316 318 319 319 318 317 317 317 317 317 318 321 325 328 330 331 334 336 337 337 338 339 338 336 335 335 332 327 322 317 314 312 311 315 317 315 310 302 301 309 314 308 292 274 270 270 250 242 282 276 244
218 218 220 220 223 228 234 245 257 267 270 268 262 255 251 250 250 252 258 266 274 284 293 299 306 312 315 317 317 317 316 315 315 315 316 318 319 317 317 316 316 316 316 317 319 321 324 327 329 332 336 340 344 346 348 350 349 346 345 346 345 342 338 333 328 324 320 319 319 318 316 311 305 302 306 312 311 290 272 267 254 238 251 256 233
218 219 219 219 223 229 238 252 264 270 267 258 248 244 244 245 248 251 257 266 274 284 291 297 305 312 314 315 315 314 314 313 313 314 315 317 317 316 316 316 316 317 317 318 321 324 328 331 332 336 340 344 349 352 352 350 349 348 348 351 353 353 351 349 345 340 334 329 325 321 321 321 314 305 301 306 317 315 291 279 269 253 244 241 230
220 219 219 221 225 232 245 260 270 272 265 253 243 241 244 247 250 253 258 266 274 281 288 296 305 310 312 312 312 311 312 312 313 314 315 316 316 315 316 318 320 321 321 323 328 334 338 340 339 341 344 347 351 354 352 349 348 348 350 355 357 356 357 359 357 352 349 346 341 332 323 320 316 309 305 301 302 308 304 296 293 281 262 252 250
222 222 223 225 228 235 246 260 268 269 262 252 244 244 248 249 252 256 260 266 273 279 288 297 304 307 309 310 310 310 311 312 313 314 315 316 316 315 317 320 322 324 326 328 334 341 345 346 345 345 344 345 348 350 349 347 346 347 350 355 356 355 360 4 2 0 0 360 359 354 344 333 324 316 309 302 294 290 288 285 286 288 281 268 267
223 214 213 219 224 231 241 252 261 263 260 254 248 247 251 252 254 258 261 266 273 279 289 296 301 305 307 309 309 310 311 312 313 314 315 315 315 314 316 318 320 324 327 329 334 340 343 345 346 346 345 345 346 348 348 347 346 348 350 353 355 357 2 5 2 2 5 5 7 10 9 3 353 341 329 317 304 293 286 281 275 269 261 257 262
222 192 195 219 229 232 238 246 254 258 259 255 250 249 252 253 255 259 262 267 273 280 289 295 300 304 306 308 309 310 311 311 312 313 313 314 314 313 315 317 319 322 324 326 330 336 338 340 342 342 343 346 348 347 347 346 347 349 349 351 354 356 1 2 357 358 2 4 7 11 14 14 11 3 352 340 331 323 307 291 287 280 261 248 245
226 201 208 229 234 232 236 242 250 256 257 255 251 250 252 253 255 258 261 266 273 281 289 295 300 304 306 308 309 310 310 309 311 312 312 313 313 312 314 316 319 322 323 323 328 333 334 334 335 335 337 342 344 342 340 342 346 348 346 346 347 348 353 355 352 353 357 0 5 10 12 13 12 8 4 358 356 354 336 311 312 326 310 276 260
219 209 214 224 228 230 235 241 248 254 255 253 249 249 250 250 252 255 257 264 272 282 289 295 300 303 305 307 308 308 308 308 310 311 311 312 312 313 315 318 320 322 323 325 329 331 328 328 330 332 337 339 338 336 334 338 343 344 341 340 341 343 348 350 348 349 353 358 4 9 10 11 8 4 4 5 4 350 328 317 322 342 355 352 319
206 209 216 221 225 229 235 241 247 251 251 249 247 248 248 248 249 252 256 264 273 282 289 294 299 302 305 307 306 306 306 307 309 311 312 314 316 318 320 321 322 323 325 329 330 328 327 331 336 339 341 341 338 340 344 350 355 355 352 351 352 352 350 347 346 348 351 355 1 4 5 4 2 360 0 5 7 1 356 359 7 16 20 24 26
207 214 219 222 226 232 237 243 248 248 247 245 245 246 246 246 249 252 257 265 273 281 288 294 299 302 304 303 302 303 304 306 308 311 312 315 319 322 323 323 324 327 330 333 334 338 347 353 355 357 358 360 5 15 22 24 23 21 19 14 9 6 3 360 358 358 357 357 358 359 359 359 359 360 2 5 10 18 27 31 26 23 21 23 30
215 221 226 229 233 237 241 245 245 243 242 242 243 244 244 246 249 251 256 265 274 282 288 294 299 301 300 297 298 301 304 305 307 310 313 317 321 322 322 326 330 335 342 353 5 16 21 20 21 27 30 31 34 37 38 36 34 32 30 26 22 21 22 21 19 16 12 11 9 6 5 4 3 3 5 6 10 19 29 27 18 12 16 26 35
222 226 230 233 236 237 239 239 236 235 236 238 241 243 244 245 246 249 255 264 274 283 290 294 297 296 293 294 298 302 304 305 308 311 315 317 320 322 325 333 350 7 22 32 36 36 33 31 36 41 40 36 36 38 38 37 37 36 33 31 29 30 33 34 33 30 27 25 24 21 17 14 11 8 9 10 12 20 27 28 26 26 31 42 48
226 228 229 230 230 230 229 228 228 230 234 237 240 241 242 243 243 247 256 268 278 285 289 291 290 289 289 293 298 301 302 304 306 309 314 316 321 328 338 9 45 48 45 42 40 38 33 30 34 41 43 39 37 38 38 37 37 36 34 31 31 32 35 36 36 35 32 31 29 26 24 24 24 20 17 15 16 21 25 25 28 37 48 58 62
222 224 223 222 219 219 220 222 225 229 232 235 237 238 238 239 241 248 260 270 278 280 281 282 281 283 288 292 295 299 302 303 304 305 310 317 333 10 43 61 60 52 44 36 34 35 35 34 39 43 46 44 41 39 38 35 34 33 32 29 28 29 31 32 33 32 32 31 30 29 30 32 33 34 34 32 31 31 30 29 30 36 44 51 60
214 214 212 211 212 214 218 221 224 228 230 232 234 234 235 238 243 253 263 267 270 271 271 274 278 283 288 290 294 298 298 300 301 300 297 296 85 70 58 55 54 51 38 22 18 25 35 42 44 43 42 41 39 37 35 32 29 29 29 27 26 26 26 27 29 30 32 34 33 32 36 40 41 42 43 43 44 42 41 40 39 41 44 46 52
205 204 204 207 211 214 218 221 224 226 227 229 230 231 236 241 246 253 257 260 262 264 267 272 277 281 284 285 289 293 295 298 299 292 276 159 107 82 62 48 43 41 25 4 355 2 23 37 41 40 38 36 33 31 30 29 27 26 26 26 25 24 23 23 25 28 32 36 36 34 36 40 43 44 43 43 44 45 45 45 45 47 50 50 48
201 203 205 207 211 214 218 221 222 221 221 223 227 232 238 243 247 251 254 256 258 261 266 271 273 274 276 281 286 287 284 276 222 159 114 79 75 78 70 52 34 20 4 351 346 350 9 27 33 34 35 32 29 27 26 26 26 25 24 23 22 22 21 21 21 22 25 30 33 34 37 39 40 42 42 42 43 45 47 48 49 52 54 53 49
202 205 207 208 211 214 217 218 217 217 218 221 227 234 239 243 247 252 256 258 257 259 262 264 265 268 274 278 277 263 229 190 167 146 117 89 65 61 65 53 30 3 344 343 348 347 357 17 26 30 32 30 25 24 24 23 23 22 21 21 20 20 20 20 19 18 20 25 29 33 36 39 42 43 43 42 44 47 49 48 49 53 54 52 50
204 206 208 209 210 212 214 216 217 218 221 226 232 238 241 240 240 242 245 248 249 250 253 257 264 274 284 277 251 213 189 172 156 136 117 101 74 45 42 39 22 351 331 336 346 343 349 11 23 25 26 24 20 20 20 18 17 17 18 19 19 19 19 19 18 18 20 25 28 31 34 38 41 44 44 43 44 46 47 47 47 50 53 53 51
204 205 206 207 208 211 215 218 219 219 221 223 224 223 224 226 228 231 235 240 240 237 234 237 243 242 228 206 191 180 171 162 148 133 122 107 67 34 23 15 3 341 331 337 345 341 347 7 18 17 17 15 15 14 13 11 12 12 13 16 18 20 20 19 19 22 25 27 29 30 31 33 37 41 44 45 46 46 46 46 47 49 52 52 51
203 205 206 207 210 214 216 218 217 217 218 217 216 218 222 224 225 225 226 228 228 229 232 238 233 213 192 183 180 175 170 162 153 149 145 134 69 15 5 356 348 339 333 333 333 331 338 354 6 9 10 9 9 7 5 6 8 8 10 13 15 17 19 18 20 26 29 30 31 32 32 32 33 37 40 42 45 47 47 47 48 50 51 49 48
204 207 210 213 215 215 215 215 214 215 216 217 219 223 226 225 225 224 222 217 217 225 237 242 229 206 191 184 179 176 175 172 167 165 165 166 294 333 344 346 342 332 323 319 319 321 329 346 359 3 5 4 3 1 360 3 4 6 9 12 11 12 15 16 20 26 29 30 32 34 34 34 32 34 38 40 43 46 48 48 48 48 50 49 47
206 211 215 217 216 213 211 211 212 214 216 218 220 222 222 220 217 217 215 215 219 223 225 221 210 197 188 184 180 180 183 182 177 174 185 230 284 315 333 337 329 316 308 307 310 315 324 341 353 358 1 360 359 357 357 359 2 5 9 11 10 11 13 14 19 24 26 27 31 33 33 34 33 35 38 40 42 44 46 48 49 47 48 49 50
205 209 214 215 211 207 208 212 213 214 215 216 218 220 219 214 207 207 212 219 225 222 208 196 191 187 185 186 187 187 189 189 186 188 212 254 285 308 320 320 311 301 298 301 305 311 325 342 351 355 357 355 353 354 356 358 2 6 9 10 10 12 14 16 20 23 23 24 27 29 30 31 31 34 38 41 44 45 44 46 49 50 50 51 52
202 203 209 209 206 206 209 212 215 215 215 214 212 212 212 209 205 209 216 220 222 214 198 186 183 184 187 191 193 194 195 196 193 202 236 259 278 296 304 303 295 289 291 299 305 313 327 343 349 353 353 349 350 354 355 358 3 7 9 9 10 13 17 19 20 20 19 22 26 27 28 29 30 30 33 37 42 43 44 44 45 47 50 51 53
199 197 201 202 204 207 209 210 211 211 209 206 203 201 204 208 212 218 222 218 209 200 191 186 184 187 192 196 199 200 200 200 199 213 237 250 264 284 288 284 283 287 294 302 309 319 331 340 347 352 349 349 353 355 355 360 5 7 8 9 10 13 17 19 21 19 17 18 23 25 26 28 29 29 30 33 36 38 39 40 41 43 44 45 48
198 196 198 202 205 209 209 207 206 205 200 197 197 199 205 212 218 223 223 212 198 189 187 188 190 194 198 202 203 204 203 203 207 215 226 235 248 265 272 276 284 294 302 307 312 323 331 335 342 347 349 354 360 359 359 3 4 4 8 8 9 13 16 16 16 18 17 15 18 22 25 26 27 28 28 30 32 32 33 35 36 38 40 41 41
197 198 202 206 209 209 207 205 202 198 193 193 197 205 212 217 220 221 216 204 192 187 189 192 196 201 205 206 207 208 207 206 207 213 218 225 238 253 265 278 291 300 306 310 315 321 327 330 337 347 353 1 6 4 4 6 3 3 7 9 6 10 16 16 13 16 19 18 17 19 23 23 25 26 26 26 27 27 28 29 30 31 34 35 35
200 203 206 209 210 209 205 202 196 189 189 196 204 211 215 219 220 216 206 195 189 189 193 198 203 207 210 210 210 212 210 207 207 209 214 222 240 257 271 285 295 301 307 311 313 317 320 324 334 349 357 4 10 9 7 6 3 1 5 7 5 6 12 14 11 13 19 20 19 21 24 24 24 27 27 26 26 24 24 23 24 25 26 25 23
202 204 206 208 208 204 199 194 190 191 197 204 210 214 219 220 216 207 198 192 191 194 199 205 209 213 214 213 214 214 212 209 207 208 213 224 245 265 280 290 296 301 306 307 306 312 316 321 335 355 1 3 7 7 5 4 3 1 1 3 4 5 7 7 6 9 17 20 19 23 27 27 27 27 27 27 28 26 24 24 24 23 23 21 18
202 203 205 204 200 196 194 194 196 201 206 211 213 217 220 215 205 198 195 194 195 200 206 211 215 216 216 216 214 213 210 208 207 211 219 233 252 270 281 289 293 297 299 299 299 302 305 313 328 344 351 354 357 359 359 359 357 356 357 359 360 359 359 359 359 4 12 17 17 19 23 26 27 25 23 26 28 26 25 25 25 24 22 19 17
199 198 198 194 192 194 197 200 203 207 208 210 213 215 213 204 197 195 195 197 201 208 212 215 217 217 218 218 216 214 213 210 210 215 227 241 257 269 278 284 289 290 291 291 291 292 295 306 319 329 336 344 347 349 351 351 349 349 349 350 351 350 349 351 354 357 1 7 9 9 11 16 20 18 15 18 22 22 22 20 20 20 20 17 14
191 190 191 191 194 198 201 205 209 209 209 214 217 213 206 199 196 196 198 202 208 214 216 218 220 220 221 220 217 217 219 218 217 222 233 245 258 267 274 280 283 284 285 285 285 288 292 298 308 317 326 332 337 341 343 342 342 343 341 339 340 339 340 343 345 346 349 353 356 356 357 359 2 4 3 3 5 6 8 8 9 11 11 9 8
185 188 191 194 198 201 203 206 208 211 216 221 218 209 202 198 196 199 203 209 215 218 219 222 224 223 221 220 219 220 225 227 228 232 238 248 259 265 271 276 278 279 282 282 283 286 291 294 300 308 316 322 327 333 336 336 337 337 336 334 333 332 332 333 335 336 338 341 343 343 343 343 345 347 346 344 345 345 346 347 350 351 352 351 352
186 189 193 198 202 204 205 208 212 220 227 224 211 203 200 198 199 204 209 214 219 222 223 226 227 224 222 222 222 224 231 237 241 244 248 254 262 267 271 275 277 279 281 282 284 285 287 290 295 299 305 313 319 323 327 329 330 331 330 330 329 328 326 325 324 325 327 330 331 332 331 330 332 333 330 327 327 327 326 327 328 327 327 328 328
188 194 198 202 204 206 211 218 225 230 230 216 205 202 201 201 205 210 215 219 224 227 227 228 228 224 222 223 225 229 235 242 247 251 255 257 263 268 272 274 277 280 281 282 283 285 285 287 291 294 300 306 311 315 318 319 320 321 322 322 321 320 319 317 316 315 317 318 319 320 320 320 320 320 318 317 316 314 313 312 310 309 308 308 307
193 199 203 205 208 214 222 229 232 228 216 207 204 203 203 206 211 216 221 226 230 231 230 229 227 224 224 227 231 235 242 246 250 254 259 263 266 270 274 275 277 279 280 281 281 283 284 287 289 291 295 299 302 306 309 310 311 312 313 313 313 313 311 310 309 308 308 308 308 308 309 309 310 310 309 309 309 308 306 304 302 300 299 298 297
197 202 205 208 215 224 231 232 226 217 210 206 204 203 206 211 216 221 225 231 234 234 230 227 226 225 227 232 236 242 248 252 254 256 261 266 270 273 276 277 278 279 280 281 281 281 283 285 287 289 293 295 297 299 301 303 304 306 306 305 306 306 305 304 303 302 301 300 299 299 299 299 299 300 300 300 300 300 299 298 297 296 295 294 293
201 204 209 215 222 230 234 230 221 216 212 207 204 207 212 217 221 226 230 234 237 235 230 225 225 227 231 236 242 247 252 257 260 263 266 270 273 277 279 280 281 281 282 282 283 284 285 287 288 289 290 292 293 295 296 297 298 299 300 301 301 301 300 299 298 298 297 296 295 295 294 294 293 293 292 292 293 293 293 292 292 292 291 291 290
204 207 212 220 226 230 230 223 216 214 212 208 208 213 218 221 226 230 233 235 237 236 231 226 226 231 236 240 245 249 254 259 263 266 269 272 275 278 281 283 284 285 286 286 287 287 287 288 289 290 291 291 291 291 292 293 294 295 295 295 296 296 295 294 294 294 293 292 292 292 291 291 290 289 289 288 288 288 288 288 288 288 288 288 287
207 210 215 223 227 228 224 217 214 212 210 208 211 217 223 227 231 234 235 235 235 234 231 229 230 235 240 245 249 253 257 260 263 266 269 273 277 280 282 284 285 285 286 287 288 289 288 288 288 288 289 290 290 290 290 290 290 290 291 291 291 291 291 290 291 291 291 290 290 290 289 289 288 287 287 286 285 284 284 285 285 286 286 286 286
209 214 219 225 228 227 220 214 213 213 211 211 215 221 226 233 237 238 238 236 233 231 231 233 236 241 246 250 253 256 258 261 264 267 270 274 277 279 281 284 285 285 284 283 283 284 286 287 288 288 288 287 288 289 289 289 289 288 287 287 287 287 287 287 287 288 288 288 288 288 287 287 287 286 285 285 284 283 282 282 282 283 284 284 284
Height
3115 3117 3119 3121 3124 3127 3129 3131 3132 3133 3134 3135 3135 3136 3137 3137 3137 3137 3137 3137 3137 3137 3137 3136 3136 3135 3134 3134 3133 3132 3131 3130 3128 3127 3126 3125 3124 3122 3120 3119 3117 3115 3114 3113 3112 3110 3109 3108 3107 3106 3105 3103 3102 3100 3098 3096 3095 3093 3091 3089 3088 3085 3083 3082 3079 3079 3079 3077 3076 3076 3075 3074 3074 3073 3071 3070 3070 3069 3070 3072 3073 3074 3076 3078 3081
3114 3116 3119 3121 3123 3126 3128 3129 3131 3132 3133 3133 3134 3135 3135 3135 3135 3135 3135 3135 3136 3136 3135 3135 3134 3133 3133 3132 3132 3130 3129 3128 3127 3126 3125 3124 3122 3121 3119 3117 3115 3114 3112 3111 3110 3109 3107 3106 3105 3104 3103 3101 3100 3098 3096 3094 3092 3091 3090 3088 3086 3084 3082 3080 3078 3077 3076 3075 3074 3073 3072 3071 3070 3068 3067 3066 3066 3066 3066 3068 3069 3070 3072 3075 3077
3113 3115 3118 3120 3122 3125 3126 3128 3129 3130 3131 3132 3132 3133 3133 3133 3133 3134 3134 3134 3134 3134 3134 3133 3133 3132 3131 3131 3130 3129 3128 3127 3125 3124 3123 3122 3121 3119 3117 3115 3114 3112 3111 3110 3109 3107 3106 3105 3104 3102 3101 3099 3098 3096 3094 3092 3091 3089 3088 3086 3084 3083 3081 3079 3077 3075 3074 3073 3072 3070 3070 3069 3067 3065 3063 3062 3062 3062 3063 3064 3065 3067 3069 3072 3074
3112 3114 3117 3119 3121 3123 3125 3126 3127 3128 3129 3130 3130 3131 3131 3131 3131 3132 3132 3132 3133 3133 3132 3132 3131 3130 3130 3129 3128 3127 3126 3125 3124 3123 3122 3121 3119 3117 3116 3114 3112 3110 3109 3108 3107 3106 3105 3104 3102 3101 3099 3097 3096 3094 3092 3090 3089 3088 3086 3084 3083 3081 3079 3077 3075 3074 3072 3071 3070 3068 3067 3066 3064 3062 3060 3059 3059 3059 3060 3061 3062 3063 3066 3069 3071
3111 3113 3115 3117 3119 3122 3123 3124 3125 3126 3127 3128 3128 3129 3129 3129 3130 3130 3130 3131 3131 3131 3131 3130 3129 3129 3128 3128 3127 3126 3125 3124 3122 3122 3120 3119 3118 3116 3114 3112 3110 3109 3107 3106 3106 3105 3103 3102 3100 3099 3097 3095 3094 3092 3090 3088 3087 3086 3084 3083 3081 3079 3077 3076 3074 3072 3070 3069 3068 3066 3065 3064 3062 3061 3059 3058 3057 3057 3059 3059 3060 3061 3063 3065 3067
3110 3112 3114 3116 3118 3120 3121 3122 3123 3124 3125 3126 3126 3127 3127 3127 3128 3128 3129 3129 3130 3129 3129 3128 3128 3127 3127 3126 3125 3124 3123 3122 3121 3120 3119 3118 3116 3115 3113 3111 3109 3107 3106 3105 3104 3103 3101 3100 3098 3097 3095 3094 3092 3090 3089 3087 3085 3084 3082 3081 3079 3078 3076 3074 3072 3070 3068 3067 3065 3064 3063 3062 3061 3060 3058 3057 3057 3057 3057 3058 3059 3060 3061 3063 3065
3108 3110 3113 3115 3117 3119 3119 3120 3121 3123 3123 3124 3124 3124 3125 3125 3126 3126 3127 3127 3128 3127 3127 3127 3126 3126 3126 3125 3124 3123 3122 3121 3120 3119 3118 3117 3115 3113 3111 3109 3108 3106 3105 3103 3102 3101 3100 3098 3097 3095 3094 3092 3091 3089 3087 3085 3084 3082 3081 3079 3078 3076 3074 3073 3071 3069 3067 3065 3064 3063 3061 3060 3059 3058 3057 3057 3056 3056 3056 3056 3057 3058 3059 3060 3062
3107 3110 3113 3115 3116 3117 3118 3119 3120 3121 3121 3122 3122 3122 3123 3123 3124 3125 3125 3126 3126 3125 3125 3125 3125 3125 3124 3124 3123 3122 3121 3120 3119 3118 3117 3115 3114 3112 3110 3108 3107 3105 3103 3102 3101 3100 3098 3097 3095 3094 3092 3091 3089 3088 3086 3084 3083 3081 3079 3077 3076 3074 3072 3071 3069 3067 3066 3064 3062 3061 3060 3058 3057 3057 3056 3055 3055 3055 3055 3054 3055 3056 3057 3058 3059
3107 3110 3112 3113 3115 3116 3117 3118 3118 3119 3119 3120 3120 3120 3121 3122 3122 3123 3123 3124 3124 3124 3123 3123 3124 3123 3123 3123 3122 3121 3120 3119 3118 3116 3115 3114 3112 3111 3109 3107 3105 3104 3102 3101 3100 3098 3097 3096 3094 3092 3091 3090 3088 3086 3085 3083 3082 3080 3078 3076 3074 3072 3071 3069 3067 3066 3064 3063 3061 3060 3058 3057 3056 3056 3055 3054 3054 3054 3054 3053 3053 3054 3055 3056 3057
3107 3109 3110 3111 3113 3114 3115 3116 3116 3117 3117 3118 3118 3118 3119 3120 3121 3121 3121 3122 3122 3122 3122 3122 3122 3122 3122 3121 3120 3119 3118 3117 3116 3115 3113 3112 3111 3109 3108 3106 3104 3103 3102 3100 3099 3097 3096 3095 3093 3092 3090 3089 3087 3086 3084 3082 3081 3079 3077 3075 3073 3071 3069 3068 3066 3065 3063 3062 3060 3058 3057 3056 3055 3055 3054 3053 3053 3053 3052 3052 3052 3053 3054 3054 3056
3105 3107 3108 3109 3111 3112 3113 3114 3114 3115 3115 3115 3116 3117 3118 3118 3119 3119 3120 3120 3120 3120 3121 3121 3121 3121 3121 3120 3119 3118 3117 3116 3115 3113 3112 3111 3110 3108 3106 3105 3104 3102 3101 3100 3098 3097 3095 3094 3093 3091 3090 3088 3087 3085 3084 3082 3081 3079 3077 3075 3073 3071 3069 3067 3065 3064 3062 3061 3059 3058 3056 3055 3055 3054 3053 3052 3052 3052 3052 3051 3051 3052 3052 3052 3053
3103 3104 3106 3107 3109 3110 3111 3111 3112 3112 3113 3114 3114 3115 3116 3117 3117 3117 3118 3118 3119 3119 3119 3120 3120 3120 3119 3119 3118 3117 3116 3114 3113 3112 3111 3110 3108 3107 3106 3104 3103 3102 3100 3099 3098 3096 3095 3093 3092 3091 3089 3088 3086 3085 3083 3082 3081 3079 3077 3075 3073 3072 3070 3068 3066 3064 3062 3060 3059 3057 3056 3055 3054 3053 3053 3052 3051 3051 3051 3051 3051 3050 3050 3050 3050
3100 3102 3104 3106 3107 3108 3109 3110 3110 3111 3111 3112 3113 3114 3115 3115 3116 3116 3116 3117 3117 3118 3118 3118 3118 3118 3118 3117 3116 3115 3114 3113 3112 3111 3110 3109 3107 3106 3105 3104 3103 3101 3100 3099 3097 3096 3094 3093 3092 3091 3089 3088 3086 3084 3083 3082 3080 3079 3077 3075 3074 3072 3070 3068 3066 3064 3063 3061 3059 3057 3056 3055 3054 3052 3052 3051 3051 3051 3050 3050 3050 3050 3049 3050 3050
3098 3101 3103 3104 3106 3107 3108 3108 3108 3108 3109 3110 3111 3112 3113 3114 3114 3115 3115 3116 3116 3116 3117 3117 3117 3117 3116 3116 3115 3114 3113 3112 3111 3110 3109 3108 3106 3105 3104 3103 3102 3101 3100 3098 3097 3095 3094 3093 3092 3090 3089 3087 3086 3084 3083 3081 3080 3078 3077 3075 3074 3072 3070 3069 3067 3065 3064 3062 3060 3058 3057 3055 3054 3052 3051 3050 3050 3049 3049 3049 3049 3049 3049 3049 3049
3097 3099 3101 3103 3104 3105 3105 3105 3105 3107 3108 3109 3110 3111 3112 3112 3113 3113 3114 3114 3115 3115 3115 3115 3115 3115 3115 3114 3113 3112 3111 3110 3110 3109 3108 3107 3106 3105 3104 3103 3102 3100 3099 3098 3096 3095 3094 3092 3091 3090 3088 3087 3085 3084 3083 3081 3080 3078 3077 3075 3074 3072 3071 3069 3068 3066 3065 3063 3061 3059 3058 3056 3055 3053 3051 3050 3049 3048 3048 3048 3048 3048 3048 3048 3048
3095 3097 3098 3100 3101 3101 3102 3102 3103 3105 3106 3107 3109 3110 3110 3111 3111 3112 3112 3113 3113 3114 3114 3114 3114 3113 3113 3112 3111 3110 3110 3109 3108 3107 3107 3106 3105 3104 3103 3102 3101 3100 3099 3097 3096 3095 3093 3092 3090 3089 3088 3086 3085 3084 3082 3081 3080 3078 3077 3075 3074 3072 3071 3070 3068 3067 3065 3064 3062 3060 3059 3057 3056 3054 3052 3051 3050 3049 3048 3048 3048 3048 3048 3047 3047
3091 3093 3094 3095 3097 3098 3099 3100 3101 3103 3105 3106 3107 3108 3108 3109 3110 3110 3111 3111 3112 3112 3112 3112 3112 3112 3111 3110 3110 3109 3109 3108 3107 3106 3105 3105 3104 3103 3102 3101 3100 3099 3098 3097 3095 3094 3093 3091 3090 3088 3087 3085 3084 3083 3082 3081 3079 3078 3076 3075 3074 3072 3071 3069 3068 3067 3065 3064 3062 3061 3059 3058 3057 3055 3054 3052 3051 3050 3049 3049 3048 3048 3047 3046 3046
3087 3089 3090 3091 3093 3095 3096 3098 3100 3102 3103 3104 3105 3106 3107 3108 3108 3109 3109 3110 3110 3110 3110 3110 3110 3110 3109 3109 3108 3108 3107 3107 3106 3105 3104 3104 3103 3102 3101 3101 3100 3098 3097 3096 3095 3093 3092 3091 3089 3088 3086 3085 3084 3083 3081 3080 3079 3078 3076 3075 3073 3072 3071 3069 3068 3066 3065 3064 3062 3061 3060 3059 3057 3056 3054 3053 3052 3051 3050 3049 3049 3048 3047 3046 3046
3084 3086 3088 3090 3091 3093 3095 3096 3099 3100 3101 3103 3104 3105 3106 3106 3107 3107 3108 3108 3108 3109 3109 3109 3108 3108 3108 3107 3107 3107 3106 3106 3105 3104 3103 3103 3102 3101 3100 3100 3099 3098 3096 3095 3094 3093 3091 3090 3089 3088 3087 3085 3084 3083 3081 3080 3079 3078 3076 3075 3073 3072 3071 3069 3068 3066 3065 3064 3063 3061 3060 3059 3058 3056 3055 3054 3053 3052 3051 3050 3049 3048 3047 3047 3046
3084 3085 3087 3088 3090 3092 3094 3096 3097 3099 3100 3101 3102 3103 3104 3104 3105 3106 3106 3106 3107 3107 3107 3107 3106 3106 3106 3106 3106 3106 3105 3105 3104 3103 3103 3102 3101 3101 3100 3099 3098 3097 3096 3095 3094 3092 3091 3090 3089 3088 3087 3086 3085 3083 3082 3081 3079 3078 3077 3076 3074 3073 3071 3070 3069 3067 3066 3064 3063 3062 3061 3059 3058 3057 3056 3055 3054 3053 3052 3051 3050 3049 3048 3047 3047
3083 3084 3086 3087 3089 3091 3093 3094 3096 3098 3099 3100 3101 3102 3102 3103 3103 3104 3104 3105 3105 3105 3105 3105 3105 3105 3105 3105 3105 3105 3104 3104 3103 3102 3102 3101 3101 3100 3099 3098 3097 3096 3096 3095 3094 3093 3092 3091 3090 3089 3088 3087 3085 3084 3083 3082 3081 3079 3078 3077 3075 3074 3073 3071 3070 3068 3067 3065 3064 3062 3061 3060 3059 3058 3057 3056 3055 3054 3053 3052 3051 3050 3050 3049 3049
3081 3083 3084 3086 3088 3089 3091 3093 3094 3096 3097 3098 3099 3100 3101 3101 3102 3102 3103 3103 3103 3103 3103 3104 3104 3104 3104 3104 3104 3103 3103 3103 3102 3102 3101 3101 3100 3099 3099 3098 3097 3096 3096 3095 3094 3094 3093 3092 3091 3089 3088 3087 3086 3085 3084 3083 3082 3081 3079 3078 3077 3075 3074 3072 3071 3069 3068 3066 3065 3064 3062 3061 3060 3059 3058 3057 3056 3055 3054 3053 3053 3052 3051 3051 3050
3079 3081 3082 3085 3086 3088 3090 3091 3093 3094 3096 3097 3098 3098 3099 3100 3100 3101 3101 3101 3101 3102 3102 3103 3103 3103 3103 3103 3102 3102 3102 3102 3101 3101 3101 3100 3100 3099 3099 3098 3097 3096 3096 3096 3095 3094 3094 3093 3092 3090 3089 3088 3087 3086 3085 3084 3083 3081 3080 3079 3078 3076 3075 3073 3072 3070 3069 3068 3066 3065 3064 3063 3061 3060 3059 3058 3057 3056 3055 3054 3053 3053 3052 3052 3052
3077 3079 3081 3083 3085 3087 3088 3090 3092 3093 3094 3095 3096 3097 3098 3098 3099 3099 3099 3100 3100 3101 3101 3102 3102 3102 3102 3101 3101 3101 3101 3101 3101 3100 3100 3100 3100 3099 3099 3098 3097 3097 3097 3096 3096 3095 3094 3093 3092 3091 3090 3089 3088 3087 3086 3085 3083 3082 3081 3080 3079 3077 3076 3074 3073 3072 3070 3069 3068 3067 3065 3064 3063 3062 3060 3059 3058 3057 3056 3055 3055 3054 3053 3053 3053
3077 3079 3080 3082 3084 3086 3087 3089 3090 3092 3093 3094 3095 3096 3096 3097 3097 3098 3098 3099 3099 3100 3100 3100 3100 3100 3100 3100 3100 3100 3100 3100 3100 3100 3100 3100 3099 3099 3099 3099 3098 3098 3098 3097 3096 3095 3094 3093 3093 3092 3091 3089 3088 3087 3086 3085 3084 3083 3082 3081 3080 3078 3077 3076 3074 3073 3072 3071 3070 3068 3067 3065 3064 3063 3062 3061 3060 3059 3058 3057 3056 3056 3055 3054 3054
3076 3078 3079 3081 3083 3085 3086 3088 3089 3090 3091 3092 3093 3094 3095 3095 3096 3097 3097 3098 3098 3099 3099 3099 3099 3099 3100 3100 3100 3100 3100 3100 3100 3100 3100 3100 3100 3099 3099 3099 3099 3098 3098 3097 3097 3096 3095 3094 3093 3092 3091 3090 3089 3088 3087 3086 3085 3084 3083 3082 3081 3079 3078 3077 3076 3074 3073 3072 3071 3069 3068 3067 3066 3064 3063 3062 3062 3061 3060 3059 3058 3057 3057 3056 3055
3075 3076 3078 3080 3082 3083 3085 3086 3087 3088 3089 3090 3091 3092 3093 3094 3095 3096 3096 3096 3097 3097 3098 3098 3098 3099 3099 3099 3099 3099 3099 3100 3100 3100 3100 3100 3100 3100 3099 3099 3099 3099 3098 3098 3097 3096 3095 3094 3093 3092 3091 3091 3090 3089 3088 3087 3086 3085 3084 3083 3082 3081 3079 3078 3077 3076 3074 3073 3072 3071 3069 3068 3067 3066 3065 3065 3064 3062 3061 3061 3060 3059 3058 3058 3058
3074 3076 3077 3079 3080 3082 3083 3084 3086 3087 3088 3089 3090 3092 3093 3094 3094 3094 3095 3095 3096 3096 3097 3097 3098 3098 3098 3098 3099 3099 3099 3099 3100 3100 3100 3100 3100 3100 3100 3099 3099 3099 3099 3098 3097 3096 3095 3094 3093 3092 3092 3091 3090 3089 3088 3087 3087 3086 3085 3084 3083 3081 3080 3079 3078 3077 3076 3074 3073 3072 3071 3070 3069 3068 3067 3066 3065 3064 3063 3063 3062 3061 3060 3060 3060
3073 3075 3076 3078 3079 3081 3082 3083 3085 3087 3088 3089 3090 3091 3091 3092 3092 3093 3094 3094 3095 3095 3096 3096 3097 3097 3097 3098 3098 3099 3099 3099 3100 3100 3100 3100 3100 3100 3100 3100 3099 3099 3099 3098 3097 3096 3095 3094 3094 3093 3092 3091 3090 3090 3089 3088 3087 3086 3085 3084 3083 3082 3081 3080 3079 3078 3077 3076 3075 3074 3073 3072 3071 3070 3069 3068 3067 3066 3065 3065 3064 3063 3063 3063 3062
3073 3074 3076 3077 3078 3079 3081 3083 3085 3086 3086 3088 3089 3089 3090 3090 3091 3092 3093 3093 3094 3094 3095 3095 3095 3096 3097 3097 3098 3098 3099 3099 3100 3100 3100 3100 3100 3100 3100 3100 3099 3099 3098 3098 3097 3096 3096 3095 3094 3093 3092 3091 3091 3090 3089 3089 3088 3087 3086 3085 3084 3083 3082 3081 3080 3079 3078 3077 3076 3075 3074 3073 3072 3071 3070 3070 3069 3068 3067 3067 3066 3065 3065 3064 3064
3072 3074 3075 3076 3077 3078 3080 3082 3084 3085 3085 3086 3087 3088 3089 3090 3091 3091 3092 3092 3093 3093 3094 3094 3095 3095 3096 3097 3098 3098 3099 3099 3099 3100 3100 3100 3100 3100 3100 3099 3099 3099 3098 3098 3097 3096 3096 3095 3094 3093 3092 3092 3091 3090 3090 3089 3088 3087 3086 3085 3084 3084 3083 3082 3081 3080 3079 3078 3077 3076 3075 3074 3073 3073 3072 3071 3070 3070 3069 3068 3068 3067 3067 3066 3065
3071 3073 3074 3075 3076 3078 3080 3082 3083 3083 3085 3085 3086 3087 3088 3089 3090 3090 3091 3091 3092 3092 3093 3094 3094 3095 3096 3097 3097 3098 3098 3099 3099 3099 3099 3099 3099 3099 3099 3099 3099 3098 3098 3097 3097 3096 3095 3095 3094 3093 3092 3092 3091 3090 3090 3089 3088 3087 3086 3086 3085 3084 3083 3082 3081 3081 3080 3079 3078 3077 3076 3076 3075 3074 3073 3072 3072 3071 3070 3070 3069 3069 3068 3068 3067
3070 3071 3072 3074 3076 3078 3079 3080 3081 3082 3083 3084 3085 3086 3087 3088 3089 3089 3090 3090 3091 3091 3092 3093 3094 3095 3096 3097 3097 3098 3098 3098 3099 3099 3099 3099 3099 3099 3099 3098 3098 3098 3098 3097 3097 3096 3095 3094 3094 3093 3092 3092 3091 3090 3090 3089 3088 3087 3087 3086 3085 3084 3084 3083 3082 3081 3081 3080 3079 3078 3077 3077 3076 3075 3074 3074 3073 3072 3072 3071 3071 3070 3070 3069 3069
3068 3070 3072 3073 3075 3077 3078 3079 3080 3081 3082 3083 3084 3085 3086 3087 3087 3088 3089 3089 3090 3091 3091 3092 3094 3095 3096 3096 3097 3097 3098 3098 3098 3098 3098 3098 3098 3098 3098 3098 3098 3098 3098 3097 3096 3095 3095 3094 3094 3093 3092 3092 3091 3090 3090 3089 3088 3088 3087 3086 3086 3085 3084 3083 3082 3082 3081 3080 3080 3079 3078 3077 3077 3076 3075 3074 3074 3073 3073 3072 3072 3071 3071 3070 3070
3068 3069 3071 3072 3074 3076 3077 3079 3079 3080 3081 3082 3083 3084 3085 3086 3086 3087 3088 3088 3089 3090 3091 3092 3093 3094 3095 3096 3096 3097 3097 3097 3098 3098 3098 3098 3098 3098 3098 3098 3098 3098 3097 3096 3096 3095 3094 3094 3093 3093 3092 3092 3091 3090 3090 3089 3089 3088 3087 3087 3086 3085 3084 3084 3083 3082 3082 3081 3080 3080 3079 3078 3077 3077 3076 3075 3075 3074 3074 3073 3072 3072 3071 3071 3070
3066 3068 3070 3071 3073 3075 3076 3077 3078 3079 3080 3081 3082 3083 3084 3085 3085 3086 3087 3088 3088 3090 3091 3092 3093 3094 3095 3095 3096 3096 3097 3097 3097 3097 3098 3098 3098 3098 3098 3098 3098 3097 3097 3096 3095 3095 3094 3094 3093 3093 3092 3092 3091 3091 3090 3089 3089 3088 3087 3087 3086 3085 3085 3084 3083 3083 3082 3081 3081 3080 3079 3079 3078 3077 3077 3076 3076 3075 3074 3074 3073 3073 3072 3072 3071
3065 3067 3068 3070 3072 3073 3074 3075 3077 3078 3079 3080 3081 3082 3083 3084 3084 3085 3086 3087 3088 3089 3091 3092 3093 3094 3094 3095 3095 3096 3096 3096 3097 3097 3097 3097 3098 3098 3098 3098 3097 3097 3096 3096 3095 3094 3094 3093 3093 3093 3092 3092 3091 3091 3090 3089 3089 3088 3088 3087 3086 3086 3085 3084 3084 3083 3082 3082 3081 3080 3080 3079 3079 3078 3077 3077 3076 3076 3075 3074 3074 3073 3073 3072 3072
3064 3065 3067 3069 3070 3072 3073 3075 3076 3077 3078 3079 3080 3081 3082 3083 3083 3084 3085 3086 3088 3089 3090 3091 3092 3093 3094 3094 3095 3095 3095 3096 3096 3096 3097 3097 3097 3097 3097 3097 3097 3096 3096 3095 3095 3094 3094 3093 3093 3093 3092 3092 3091 3091 3090 3090 3089 3089 3088 3087 3087 3086 3085 3085 3084 3084 3083 3082 3082 3081 3080 3080 3079 3078 3078 3077 3077 3076 3075 3075 3074 3074 3073 3073 3072
3063 3064 3066 3068 3070 3071 3073 3074 3075 3076 3077 3078 3079 3080 3081 3081 3082 3084 3085 3086 3087 3088 3090 3091 3092 3092 3093 3094 3094 3095 3095 3095 3096 3096 3096 3097 3097 3097 3097 3096 3096 3096 3095 3095 3094 3094 3094 3093 3093 3093 3092 3092 3091 3091 3090 3090 3089 3089 3088 3088 3087 3086 3086 3085 3085 3084 3084 3083 3082 3082 3081 3080 3079 3079 3078 3078 3077 3077 3076 3075 3075 3074 3074 3073 3072
3062 3064 3066 3068 3070 3071 3072 3073 3074 3075 3076 3077 3078 3079 3079 3080 3082 3083 3084 3086 3087 3088 3089 3090 3091 3092 3092 3093 3094 3094 3094 3095 3095 3096 3096 3096 3096 3096 3096 3096 3096 3095 3095 3094 3094 3094 3094 3093 3093 3093 3092 3092 3091 3091 3091 3090 3090 3089 3089 3088 3087 3087 3086 3086 3085 3085 3084 3083 3083 3082 3081 3081 3080 3079 3079 3078 3077 3077 3076 3076 3075 3075 3074 3074 3073
3062 3064 3066 3067 3069 3070 3071 3072 3073 3074 3075 3076 3077 3078 3078 3079 3081 3082 3084 3085 3087 3088 3089 3090 3090 3091 3092 3092 3093 3093 3094 3094 3095 3095 3095 3095 3096 3096 3095 3095 3095 3095 3094 3094 3094 3094 3093 3093 3093 3092 3092 3092 3091 3091 3091 3090 3090 3089 3089 3088 3088 3087 3087 3086 3085 3085 3084 3083 3083 3082 3081 3081 3080 3079 3079 3078 3078 3077 3076 3076 3075 3075 3074 3074 3073
3062 3063 3065 3066 3068 3069 3070 3071 3072 3073 3074 3075 3076 3077 3078 3079 3080 3082 3084 3085 3086 3087 3088 3089 3090 3090 3091 3091 3092 3093 3093 3094 3094 3094 3095 3095 3095 3095 3095 3095 3094 3094 3094 3094 3094 3093 3093 3093 3093 3092 3092 3092 3091 3091 3090 3090 3090 3089 3089 3088 3088 3087 3087 3086 3086 3085 3084 3084 3083 3082 3082 3081 3080 3080 3079 3078 3078 3077 3076 3076 3075 3075 3074 3073 3073
3061 3063 3064 3065 3067 3068 3069 3070 3071 3072 3073 3074 3075 3076 3077 3078 3080 3082 3083 3084 3085 3086 3087 3088 3089 3089 3090 3091 3092 3092 3093 3093 3093 3093 3094 3094 3094 3094 3094 3094 3094 3094 3093 3093 3093 3093 3093 3092 3092 3092 3092 3091 3091 3091 3090 3090 3089 3089 3089 3088 3088 3087 3087 3086 3086 3085 3084 3084 3083 3082 3082 3081 3080 3080 3079 3078 3078 3077 3076 3076 3075 3074 3074 3073 3072
3061 3062 3063 3065 3066 3067 3068 3069 3070 3071 3072 3073 3074 3075 3077 3078 3080 3081 3082 3084 3085 3086 3087 3087 3088 3089 3089 3090 3091 3091 3092 3092 3092 3093 3093 3093 3093 3093 3093 3093 3093 3093 3093 3093 3092 3092 3092 3092 3092 3091 3091 3091 3090 3090 3090 3089 3089 3089 3088 3088 3087 3087 3086 3086 3085 3085 3084 3083 3083 3082 3081 3081 3080 3079 3078 3078 3077 3076 3076 3075 3074 3074 3073 3072 3072
3061 3062 3063 3064 3065 3066 3067 3068 3069 3070 3071 3073 3074 3075 3076 3078 3079 3080 3082 3083 3084 3085 3086 3087 3087 3088 3089 3089 3090 3091 3091 3091 3092 3092 3092 3092 3093 3093 3093 3092 3092 3092 3092 3092 3092 3091 3091 3091 3091 3091 3090 3090 3090 3089 3089 3089 3088 3088 3087 3087 3087 3086 3086 3085 3085 3084 3083 3083 3082 3081 3081 3080 3079 3078 3078 3077 3076 3076 3075 3074 3073 3073 3072 3072 3071
3060 3061 3062 3063 3064 3065 3066 3067 3069 3070 3071 3072 3073 3074 3076 3077 3079 3080 3081 3082 3083 3084 3085 3086 3086 3087 3088 3089 3089 3090 3090 3090 3091 3091 3091 3091 3091 3091 3091 3091 3091 3091 3091 3091 3091 3090 3090 3090 3090 3090 3089 3089 3089 3088 3088 3088 3087 3087 3086 3086 3085 3085 3084 3084 3083 3083 3082 3082 3081 3080 3080 3079 3078 3077 3077 3076 3075 3074 3074 3073 3072 3071 3071 3070 3069
3059 3060 3062 3063 3064 3064 3065 3067 3068 3069 3070 3071 3072 3074 3075 3076 3078 3079 3081 3081 3082 3083 3084 3085 3085 3086 3087 3088 3088 3088 3089 3089 3090 3090 3090 3090 3090 3090 3090 3090 3090 3090 3090 3090 3089 3089 3089 3089 3089 3088 3088 3088 3087 3087 3087 3086 3086 3085 3085 3085 3084 3084 3083 3082 3082 3081 3081 3080 3079 3079 3078 3077 3076 3076 3075 3074 3073 3073 3072 3071 3070 3070 3069 3068 3067
3059 3060 3061 3062 3063 3064 3065 3066 3067 3068 3069 3070 3072 3073 3074 3076 3078 3079 3080 3080 3081 3082 3083 3084 3084 3085 3086 3086 3087 3087 3088 3088 3088 3088 3088 3089 3089 3088 3088 3088 3088 3088 3088 3088 3088 3088 3087 3087 3087 3087 3086 3086 3086 3085 3085 3084 3084 3084 3083 3082 3082 3082 3081 3080 3080 3079 3078 3077 3077 3076 3075 3075 3074 3073 3073 3072 3071 3070 3070 3069 3068 3067 3067 3066 3065
3059 3060 3060 3061 3062 3063 3064 3065 3066 3067 3068 3070 3071 3073 3074 3076 3077 3078 3079 3080 3080 3081 3082 3083 3084 3084 3085 3085 3086 3086 3086 3086 3087 3087 3087 3087 3087 3087 3087 3087 3087 3087 3086 3086 3086 3086 3086 3085 3085 3085 3084 3084 3084 3083 3083 3082 3082 3081 3081 3080 3079 3079 3078 3077 3077 3076 3075 3075 3074 3073 3072 3072 3071 3070 3070 3069 3068 3067 3067 3066 3065 3064 3064 3063 3062
3058 3059 3060 3061 3061 3062 3063 3064 3065 3066 3068 3069 3071 3072 3073 3075 3076 3077 3077 3078 3079 3080 3081 3082 3082 3083 3084 3084 3084 3085 3085 3085 3085 3085 3085 3085 3085 3085 3085 3085 3085 3085 3085 3084 3084 3084 3083 3083 3083 3083 3082 3082 3081 3081 3080 3080 3079 3078 3078 3077 3076 3076 3075 3074 3073 3073 3072 3071 3070 3070 3069 3068 3067 3067 3066 3065 3065 3064 3063 3062 3061 3061 3060 3059 3059
3057 3058 3059 3060 3061 3061 3062 3063 3064 3065 3067 3069 3070 3071 3073 3074 3074 3075 3076 3077 3078 3079 3080 3080 3081 3082 3082 3083 3083 3083 3083 3083 3083 3083 3083 3083 3083 3083 3083 3083 3083 3083 3083 3083 3082 3082 3081 3080 3080 3080 3079 3079 3078 3078 3077 3076 3076 3075 3074 3073 3072 3072 3071 3070 3069 3069 3068 3067 3066 3066 3065 3064 3063 3063 3062 3061 3060 3060 3059 3058 3058 3057 3056 3055 3055